Location: Dattensoll
(49.9928°N, 9.8954°E)
Time: 01:56:56
(UTC+00:00)

CZ-2C R/B - Pass Details

Date: 19 May 2025
Orbit: 631 x 692 km, 98.1° (Epoch: 23 June)

Event Time Altitude Azimuth Distance (km) Brightness Sun altitude
Rises 21:36:20 0° 21° (NNE) 2,940 7.7 -16.6°
Reaches altitude 10° 21:38:42 10° 30° (NNE) 2,025 6.7 -16.7°
Maximum altitude 21:42:45 35° 97° (E) 1,018 4.4 -17.0°
Enters shadow 21:43:57 30° 131° (SE) 1,142 4.4 -17.1°
